[[{"header":{"parameterUnit":"m.s-1","parameterCategory":1,"la1":30.2991,"la2":30.254,"lo1":-89.0895,"lo2":-89.0444,"dy":0.0017,"dx":0.0017,"nx":28,"ny":28,"refTime":"2025-07-31T21:00:00:Z","depth":0,"parameterNumber":2,"parameterNumberName":"U-component_of_WINDS"},"data":[0,0,0,0,0,0,0,0,0,0,0,0,0,0,0,0,0,0,0,0,0,0,0,0,0,0,0,0,0,0,0,0,0,0,0,0,0,0,0,0,0,0,0,0,0,0,0,0,0,0,0,0,0,0,0,0,0,0,2.4348,2.4349,0,2.4422,2.4423,2.4424,2.4378,2.4376,2.4373,2.4371,2.4454,2.4458,2.4462,0,0,0,0,0,0,0,0,0,0,0,0,0,2.4174,2.4178,2.4348,2.4349,2.435,2.4422,2.4423,2.4424,2.4378,2.4376,2.4373,2.437,2.4453,2.4458,2.4463,0,0,0,0,0,0,0,0,0,0,0,0,0,2.4249,2.4179,2.4348,2.4336,2.4335,2.4422,2.4423,2.4425,2.4379,2.4376,2.4372,2.4369,2.4451,2.4457,2.4464,2.4569,0,0,2.4483,2.4486,0,0,0,0,0,0,0,0,2.4245,2.4256,2.4337,2.4337,2.4336,2.4387,2.4392,2.4473,2.438,2.4363,2.4371,2.4368,2.4435,2.4442,2.4464,2.4573,2.4576,2.4484,2.4487,2.449,2.4492,0,0,0,0,0,0,0,2.424,2.4252,2.4378,2.4338,2.4338,2.4329,2.4336,2.4407,2.4417,2.4364,2.4361,2.437,2.4434,2.4458,2.4465,2.4577,2.4483,2.4489,2.4493,2.4495,2.4778,2.4782,0,0,0,0,0,0,2.4235,2.4248,2.4375,2.438,2.4281,2.4335,2.4342,2.4374,2.4416,2.4419,2.4372,2.4367,2.4449,2.4458,2.4468,2.4595,2.449,2.4496,2.45,2.4775,2.4779,2.4783,0,0,0,0,0,0,2.4231,2.4247,2.4372,2.4313,2.4329,2.4341,2.4377,2.4378,2.4401,2.4422,2.4424,2.4394,2.4446,2.4459,2.4544,2.4597,2.4499,2.4505,2.477,2.4776,2.4781,2.4849,0,0,0,0,0,0,2.4226,2.4245,2.4284,2.4314,2.4332,2.4445,2.4381,2.4381,2.4411,2.4405,2.4443,2.4446,2.4445,2.4535,2.455,2.4604,2.451,2.4765,2.4773,2.4779,2.4842,2.4856,2.4868,0,0,0,0,0,2.422,2.4301,2.4286,2.4302,2.438,2.4448,2.4458,2.4453,2.4416,2.4456,2.4469,2.4445,2.4589,2.4544,2.4561,2.4618,2.4762,2.4771,2.4779,2.4836,2.4853,2.4868,0,0,0,0,0,0,2.4279,2.4305,2.4288,2.4381,2.4412,2.444,2.449,2.4471,2.4516,2.4508,2.4502,2.4511,2.46,2.4617,2.4567,2.4723,2.467,2.4682,2.4708,2.4724,2.4737,2.4732,2.4515,0,0,0,0,0,2.4302,2.4353,2.4374,2.4454,2.447,2.4478,2.4507,2.45,2.4534,2.4547,2.4567,2.4602,2.4656,2.4691,2.4741,2.4844,2.4853,2.4892,2.4905,2.4916,2.4927,2.4984,2.5002,2.481,2.481,2.481,0,0,2.4351,2.4372,2.4405,2.4466,2.449,2.4545,2.4489,2.455,2.4592,2.4557,2.4638,2.4654,2.4693,2.4788,2.4831,2.4805,2.4982,2.4926,2.4935,2.494,2.4995,2.5013,2.5029,2.4816,2.4815,2.4814,0,0,2.4469,2.4489,2.4558,2.4583,2.4618,2.4623,2.464,2.467,2.4679,2.476,2.4736,2.4787,2.4878,2.4907,2.4934,2.5064,2.5044,2.5081,2.515,2.5206,2.5221,2.5234,2.5282,2.53,2.5091,2.5092,2.5092,0,2.4526,2.4606,2.4597,2.4659,2.4688,2.4658,2.4729,2.4754,2.4806,2.4827,2.4797,2.4912,2.4936,2.5038,2.507,2.5092,2.5113,2.5077,2.5219,2.5233,2.5245,2.5291,2.5309,2.5096,2.5095,2.5095,2.5095,0,2.4676,2.4732,2.4784,2.4832,2.4867,2.4934,2.4937,2.4973,2.4964,2.4973,2.5056,2.5084,2.514,2.5163,2.5156,2.5265,2.5248,2.5219,2.5166,2.5268,2.5311,2.5328,2.5102,2.51,2.5099,2.5098,0,0,2.4832,2.4874,2.4894,2.4916,2.4953,2.4998,2.5065,2.5117,2.5149,2.5186,2.5244,2.5322,2.5295,2.5326,2.5321,2.537,2.5474,2.5335,2.5336,2.5361,2.5599,2.5621,2.5641,2.546,2.5464,2.5466,2.5596,0,2.4953,2.5067,2.5061,2.5168,2.5222,2.5194,2.5252,2.5283,2.5293,2.5342,2.5354,2.541,2.537,2.5388,2.5436,2.5451,2.5522,2.5442,2.5516,2.5519,2.5508,2.5663,2.5687,2.5808,2.5612,2.5615,2.5617,0,2.5109,2.515,2.5262,2.5293,2.5315,2.5367,2.5415,2.5461,2.5497,2.5501,2.5535,2.5523,2.5593,2.5538,2.5636,2.5582,2.5612,2.5625,2.5629,2.5637,2.5575,2.5676,2.5846,2.5864,2.5643,2.5641,2.5639,0,2.5214,2.5296,2.5374,2.5394,2.5432,2.5469,2.5487,2.5519,2.5552,2.5595,2.5616,2.5668,2.5697,2.5738,2.5741,2.57,2.5841,2.5785,2.5848,2.5848,2.588,2.5878,2.6057,2.5898,2.5897,2.5897,2.5897,0,2.535,2.542,2.5422,2.547,2.5549,2.5542,2.5621,2.5636,2.5665,2.5717,2.5697,2.5748,2.5748,2.58,2.5803,2.5885,2.5898,2.5905,2.5905,2.5907,2.5907,2.5928,2.592,2.5902,2.5901,2.59,2.5899,0,2.548,2.5483,2.5567,2.5596,2.5605,2.5662,2.5687,2.5734,2.5743,2.581,2.5825,2.5839,2.5899,2.5906,2.5977,2.5979,2.6078,2.6069,2.6066,2.6065,2.6128,2.6122,2.6328,2.6356,2.6177,2.6178,2.618,0,2.5567,2.562,2.5654,2.5687,2.5706,2.5759,2.5792,2.5788,2.5824,2.5869,2.5911,2.5969,2.6015,2.6114,2.6132,2.6187,2.6179,2.6248,2.6188,2.6189,2.6182,2.6179,2.6186,2.626,2.6262,2.6263,2.6265,0,2.5722,2.5721,2.5767,2.5815,2.5854,2.5892,2.5928,2.5957,2.5958,2.5999,2.606,2.6095,2.6167,2.6226,2.628,2.6301,2.6285,2.6283,2.6301,2.6304,2.6301,2.6305,2.6099,2.6279,2.6277,2.6276,2.6276,2.6275,2.5834,2.588,2.5911,2.5964,2.5991,2.6025,2.6071,2.6084,2.6134,2.619,2.6186,2.6254,2.629,2.636,2.6385,2.644,2.6417,2.6443,2.6449,2.6456,2.6463,2.6291,2.645,2.6449,2.6449,2.6448,2.6448,0,2.5988,2.6007,2.6056,2.6105,2.6148,2.6126,2.6165,2.6203,2.6261,2.6295,2.6341,2.6412,2.6469,2.6491,2.6548,2.6588,2.6582,2.6603,2.6601,2.6606,2.6479,2.6459,2.6607,2.6607,2.6607,2.6607,2.6607,2.6607,2.6074,2.6151,2.6155,2.6247,2.6265,2.6329,2.6354,2.6386,2.6413,2.6492,2.6539,2.6552,2.6583,2.6642,2.6694,2.67,2.6722,2.6747,2.675,2.6631,2.6615,2.66,2.658,2.6752,2.6752,2.6872,2.6873,2.6874]},{"header":{"parameterUnit":"m.s-1","parameterCategory":1,"la1":30.2991,"la2":30.254,"lo1":-89.0895,"lo2":-89.0444,"dy":0.0017,"dx":0.0017,"nx":28,"ny":28,"refTime":"2025-07-31T21:00:00:Z","depth":0,"parameterNumber":3,"parameterNumberName":"V-component_of_WINDS"},"data":[0,0,0,0,0,0,0,0,0,0,0,0,0,0,0,0,0,0,0,0,0,0,0,0,0,0,0,0,0,0,0,0,0,0,0,0,0,0,0,0,0,0,0,0,0,0,0,0,0,0,0,0,0,0,0,0,0,0,4.342,4.3422,0,4.3611,4.3613,4.3615,4.3671,4.367,4.3669,4.3668,4.3853,4.3858,4.3864,0,0,0,0,0,0,0,0,0,0,0,0,0,4.3091,4.3097,4.3419,4.3422,4.3424,4.3611,4.3613,4.3616,4.3671,4.367,4.3669,4.3668,4.3851,4.3858,4.3865,0,0,0,0,0,0,0,0,0,0,0,0,0,4.3253,4.3099,4.3419,4.3475,4.3482,4.361,4.3613,4.3617,4.3671,4.367,4.3668,4.3667,4.3849,4.3857,4.3866,4.3949,0,0,4.3892,4.3896,0,0,0,0,0,0,0,0,4.3244,4.3265,4.3464,4.3471,4.3479,4.3616,4.3566,4.3728,4.3672,4.3599,4.3668,4.3666,4.3774,4.3789,4.3828,4.3958,4.3966,4.3893,4.3899,4.3902,4.3905,0,0,0,0,0,0,0,4.3233,4.3257,4.3495,4.3467,4.3476,4.3487,4.3508,4.3596,4.3692,4.3605,4.361,4.3632,4.3778,4.3819,4.3833,4.3969,4.3893,4.3901,4.3906,4.391,4.4177,4.4179,0,0,0,0,0,0,4.3213,4.3247,4.3489,4.3501,4.3356,4.3494,4.3518,4.3573,4.3692,4.3708,4.3633,4.3634,4.3805,4.3822,4.3839,4.3946,4.3902,4.391,4.3915,4.4175,4.4177,4.4179,0,0,0,0,0,0,4.3206,4.3235,4.3481,4.3376,4.3408,4.3501,4.3563,4.3578,4.3619,4.3713,4.3729,4.3659,4.3805,4.3827,4.3923,4.3953,4.3914,4.3922,4.4173,4.4176,4.4178,4.4158,0,0,0,0,0,0,4.3197,4.3232,4.3267,4.3376,4.3413,4.3564,4.3565,4.3583,4.3636,4.3639,4.3741,4.3756,4.3805,4.3909,4.3931,4.3964,4.3929,4.4171,4.4174,4.4177,4.4156,4.416,4.4163,0,0,0,0,0,4.3185,4.3251,4.3268,4.3297,4.346,4.3566,4.3587,4.3645,4.3638,4.3672,4.3733,4.3753,4.3946,4.3918,4.3944,4.398,4.4169,4.4173,4.4177,4.4155,4.4159,4.4163,0,0,0,0,0,0,4.3138,4.3266,4.3287,4.3391,4.3468,4.3575,4.362,4.3647,4.3724,4.3723,4.3789,4.3811,4.3902,4.395,4.3917,4.4067,4.4058,4.4067,4.4032,4.4037,4.404,4.4026,4.3936,0,0,0,0,0,4.3141,4.322,4.3326,4.3407,4.3445,4.3526,4.3574,4.3613,4.3693,4.3725,4.3792,4.3866,4.3944,4.3993,4.4069,4.4164,4.4186,4.4201,4.4204,4.4206,4.4213,4.4267,4.4274,4.4193,4.4193,4.4193,0,0,4.3145,4.3225,4.327,4.34,4.3464,4.3541,4.3553,4.3634,4.3691,4.3736,4.3832,4.3883,4.397,4.4066,4.4111,4.4109,4.4241,4.4211,4.4212,4.4218,4.4272,4.4279,4.4286,4.4196,4.4195,4.4195,0,0,4.3194,4.3263,4.3339,4.3403,4.3502,4.3555,4.3573,4.3678,4.3715,4.3813,4.3849,4.3915,4.4047,4.4108,4.4156,4.4229,4.425,4.4252,4.4268,4.4319,4.4325,4.4331,4.4357,4.4365,4.4259,4.4259,4.4259,0,4.3186,4.3308,4.3373,4.3454,4.3509,4.3558,4.3633,4.3691,4.3807,4.3843,4.384,4.4008,4.407,4.418,4.4199,4.4236,4.4257,4.424,4.432,4.4327,4.4333,4.4358,4.4367,4.4258,4.4258,4.4258,4.4258,0,4.3293,4.3376,4.3425,4.3541,4.3602,4.3679,4.3753,4.3806,4.384,4.3893,4.3991,4.4067,4.416,4.419,4.4221,4.4305,4.43,4.4308,4.43,4.4339,4.4364,4.4374,4.4257,4.4258,4.4258,4.4258,0,0,4.3315,4.3469,4.3485,4.3539,4.3652,4.3716,4.3794,4.389,4.3933,4.4012,4.4078,4.419,4.4198,4.4253,4.4291,4.4337,4.4389,4.4339,4.4342,4.4345,4.4485,4.4479,4.4489,4.4405,4.4407,4.4408,4.4478,0,4.3377,4.3525,4.3586,4.3703,4.3781,4.3829,4.3897,4.3971,4.4023,4.4094,4.4149,4.4228,4.4233,4.4266,4.4313,4.4373,4.4418,4.4369,4.4464,4.4467,4.4441,4.4502,4.4495,4.4557,4.4488,4.4489,4.4491,0,4.3469,4.3553,4.3679,4.3784,4.3818,4.3879,4.3972,4.404,4.4124,4.4159,4.4221,4.4258,4.434,4.4327,4.4439,4.4405,4.4447,4.4482,4.4486,4.4496,4.448,4.4513,4.4578,4.4587,4.4506,4.4505,4.4504,0,4.3472,4.3616,4.3711,4.3755,4.3879,4.3921,4.3974,4.4058,4.4112,4.4191,4.4226,4.4312,4.4359,4.4424,4.4482,4.4468,4.4589,4.4581,4.4617,4.4616,4.464,4.4637,4.4712,4.4668,4.4668,4.4668,4.4667,0,4.3535,4.3609,4.3715,4.3772,4.3857,4.3926,4.4007,4.4063,4.4138,4.4205,4.425,4.4311,4.4386,4.4456,4.4501,4.4587,4.4607,4.4636,4.4647,4.4632,4.4628,4.466,4.4657,4.467,4.467,4.4669,4.4669,0,4.3552,4.3626,4.3732,4.3842,4.3872,4.3929,4.4022,4.4079,4.4134,4.4218,4.4242,4.4327,4.4412,4.4478,4.4586,4.4617,4.4708,4.472,4.468,4.4686,4.4719,4.4714,4.4816,4.4832,4.4777,4.4778,4.4778,0,4.3587,4.3646,4.3764,4.3815,4.3869,4.3949,4.4005,4.4075,4.4131,4.4233,4.4277,4.4366,4.4441,4.4574,4.4644,4.4727,4.4741,4.4771,4.4754,4.4737,4.4741,4.4737,4.4743,4.4773,4.4773,4.4773,4.4773,0,4.364,4.3674,4.3755,4.385,4.3917,4.3993,4.407,4.4108,4.4191,4.4251,4.4341,4.44,4.4514,4.4601,4.4692,4.4743,4.4771,4.4779,4.4792,4.4776,4.4751,4.4765,4.4686,4.4776,4.4775,4.4775,4.4775,4.4775,4.3667,4.3722,4.3815,4.3904,4.3971,4.4042,4.4101,4.4165,4.4243,4.4344,4.438,4.4472,4.4555,4.4682,4.4734,4.4805,4.4805,4.4824,4.4828,4.4832,4.4831,4.4741,4.4821,4.4821,4.4821,4.4821,4.4821,0,4.3722,4.3785,4.3867,4.3975,4.4045,4.407,4.4157,4.4213,4.4295,4.4372,4.4447,4.455,4.4635,4.4712,4.4801,4.4843,4.4858,4.4863,4.486,4.4872,4.4825,4.4805,4.485,4.485,4.485,4.485,4.485,4.485,4.3759,4.3855,4.39,4.4028,4.409,4.4184,4.4231,4.4297,4.4359,4.4474,4.4547,4.4598,4.4675,4.477,4.4849,4.4869,4.4899,4.4901,4.4924,4.4879,4.4875,4.4871,4.4853,4.4907,4.4907,4.4966,4.4966,4.4966]}]]